Regional Weather Roundup
Issued by NWS Sioux Falls, SD

Home | Current Version | Previous Version | Graphics & Text | Print | Product List | Glossary Off
Versions: 1 2 3 4 5 6 7 8 9 10 11 12 13 14 15 16 17 18 19 20 21 22 23 24 25 26 27 28 29 30 31 32 33 34 35 36 37 38 39 40 41 42 43 44 45 46 47 48 49 50

000
ASUS43 KFSD 052010
RWRFSD

WEATHER ROUNDUP FOR SE SOUTH DAKOTA/SW MINNESOTA/NW IOWA
NATIONAL WEATHER SERVICE SIOUX FALLS SD
200 PM CST THU MAR 05 2015

NOTE: "FAIR" INDICATES FEW OR NO CLOUDS BELOW 12,000 FEET WITH NO
SIGNIFICANT WEATHER AND OR OBSTRUCTIONS TO VISIBILITY.


SDZ038>040-050-052>070-052100-
SOUTHEAST SOUTH DAKOTA

CITY           SKY/WX    TMP DP  RH WIND       PRES   REMARKS
CHAMBERLAIN    SUNNY     32  10  40 SW12G20   30.22F WCI  23
HURON          SUNNY     28   9  44 S17G24    30.26  WCI  16
MADISON        FAIR      21  10  63 S15G21    30.29F WCI   8
MITCHELL       SUNNY     30   7  37 SW15      30.29  WCI  19
SIOUX FALLS    SUNNY     23   5  46 SW10G21   30.34  WCI  12
WINNER         FAIR      35  11  36 S12       30.19  WCI  27
YANKTON        SUNNY     30   3  31 SW13G22   30.35F WCI  20
$$

MNZ071-072-080-081-089-090-097-098-052100-
SOUTHWEST MINNESOTA

CITY           SKY/WX    TMP DP  RH WIND       PRES   REMARKS
FAIRMONT       SUNNY     16   1  53 SW10      30.42F WCI   3
JACKSON        SUNNY     18   1  49 SW14      30.39F WCI   4
LUVERNE        SUNNY     23   7  50 SW9       30.37F WCI  13
MARSHALL       SUNNY     18   1  49 SW13      30.38F WCI   4
MONTEVIDEO     FAIR      21   7  53 W8        30.38F WCI  12
PIPESTONE      SUNNY     16   7  67 SW14      30.33F WCI   1
REDWOOD FALLS  SUNNY     16   2  54 SW15      30.41  WCI   1
TRACY          SUNNY     18   5  55 SW12      30.38F WCI   6
WINDOM         SUNNY     18   3  53 S10       30.38F WCI   6
WORTHINGTON    SUNNY     18   3  53 SW15      30.38F WCI   3
$$

IAZ001>003-012>014-020>022-031-032-NEZ013-014-SDZ071-052100-
NORTHWEST IOWA

CITY           SKY/WX    TMP DP  RH WIND       PRES   REMARKS
CHEROKEE       SUNNY     19   3  49 S7        30.43F WCI  10
DENISON        SUNNY     21   0  39 SW5G12    30.43F WCI  15
ESTHERVILLE    SUNNY     14   1  56 SW8       30.42  WCI   3
LE MARS        SUNNY     25   3  39 S13       30.41F WCI  13
ORANGE CITY    SUNNY     23   1  39 SW9G17    30.39F WCI  13
SHELDON        SUNNY     21   1  42 SW10G17   30.38F WCI  10
SIOUX CITY     SUNNY     29   2  31 S9        30.41  WCI  20
SPENCER        SUNNY     18   3  52 S13       30.42  WCI   5
STORM LAKE     SUNNY     18   0  45 SW7       30.42F WCI   8
$$

ABBREVIATIONS USED IN REMARKS
   TC - TEMPERATURE IN CELSIUS
  WCI - WIND CHILL INDEX
   HX - HEAT INDEX
  VSB - VISIBILITY




USA.gov is the U.S. government's official web portal to all federal, state and local government web resources and services.